Location: Unspecified
(37.6100°N, 2.7800°W)
Time: 05:57:41
(UTC+00:00)

ISS - Visible Passes

Search period start: 24 May 2018 00:00
Search period end: 03 June 2018 00:00
Orbit: 402 x 407 km, 51.6° (Epoch: 24 May)

Date Brightness Start Highest point End Pass type
(mag) Time Alt. Az. Time Alt. Az. Time Alt. Az.
24 May -0.4 00:59:05 10° N 01:00:19 13° NNE 01:00:19 13° NNE visible
24 May -1.0 02:40:48 11° ESE 02:40:48 11° ESE 02:40:54 10° ESE visible
24 May -1.7 04:14:01 10° SW 04:14:01 10° SW 04:14:25 10° SW visible
24 May -0.8 20:50:22 10° WNW 20:52:44 18° NNW 20:55:05 10° NNE visible
25 May -1.5 19:57:27 10° W 20:00:20 28° NNW 20:03:14 10° NNE visible
26 May -0.5 20:43:58 10° NW 20:45:08 11° NNW 20:46:18 10° N visible
26 May -0.3 23:58:43 10° NNW 23:59:01 11° N 23:59:01 11° N visible
27 May -0.8 19:50:31 10° WNW 19:52:38 16° NNW 19:54:45 10° NNE visible
27 May -0.5 23:07:20 10° N 23:08:04 11° NNE 23:08:17 11° NNE visible
28 May -0.3 23:50:07 10° NNW 23:50:14 11° NNW 23:50:14 11° NNW visible
29 May -0.8 22:58:15 10° NNW 22:59:36 15° N 22:59:36 15° N visible
30 May -0.8 22:06:37 10° N 22:07:53 12° NNE 22:08:59 10° NE visible
31 May -1.1 22:49:40 10° NNW 22:51:02 20° NNW 22:51:02 20° NNW visible
01 Jun -1.5 21:57:43 10° NNW 22:00:08 19° NNE 22:00:28 18° NE visible
02 Jun -1.1 21:05:55 10° N 21:07:35 13° NNE 21:09:13 10° NE visible
02 Jun -1.3 22:41:18 10° NW 22:42:33 21° NW 22:42:33 21° NW visible
